Location: Milano
(45.4670°N, 9.2000°E)
Time: 21:25:05
(UTC+02:00)

ISS - Pass Details

Date: 15 May 2021
Orbit: 417 x 422 km, 51.6° (Epoch: 14 June)

Event Time Altitude Azimuth Distance (km) Brightness Sun altitude
Rises 00:24:09 0° 268° (W) 2,363 0.2 -24.5°
Reaches altitude 10° 00:26:21 10° 277° (W) 1,501 -0.7 -24.5°
Maximum altitude 00:29:29 35° 345° (NNW) 698 -2.1 -24.7°
Drops below altitude 10° 00:32:38 10° 54° (NE) 1,507 -0.7 -24.8°
Sets 00:34:52 0° 63° (ENE) 2,374 0.3 -24.9°
